FW4653 Weather Reports


time (UTC)temp
C
wind
direction
speed
KPH
gust
KPH
rain 1hr
cm
rain 24hr
cm
rain mn
cm
humidity
%
barometer
mb
20260906220054 36 139 6.4 14.5 0.00 0.00 0.00 44 1010.2
20260906214518 36 145 4.8 17.7 0.00 0.00 0.00 42 1010.5
20260906213046 37 146 3.2 8.0 0.00 0.00 0.00 42 1010.6
20260906211515 36 121 3.2 14.5 0.00 0.00 0.00 46 1010.8
20260906210036 36 130 1.6 12.9 0.00 0.00 0.00 44 1011.2
20260906204552 36 121 3.2 14.5 0.00 0.00 0.00 46 1011.4
20260906203026 36 118 4.8 12.9 0.00 0.00 0.00 45 1011.5
20260906201636 36 103 9.7 16.1 0.00 0.00 0.00 45 1011.8
20260906201501 36 107 8.0 16.1 0.00 0.00 0.00 46 1011.8
20260906200036 35 107 3.2 12.9 0.00 0.00 0.00 46 1011.9
20260906194603 36 337 6.4 14.5 0.00 0.00 0.00 47 1011.9
20260906193033 36 113 4.8 20.9 0.00 0.00 0.00 46 1012.2
20260906191559 35 138 3.2 16.1 0.00 0.00 0.00 47 1012.4
20260906190017 35 134 3.2 17.7 0.00 0.00 0.00 47 1012.3
20260906184543 35 128 6.4 16.1 0.00 0.00 0.00 46 1012.4
20260906183007 35 128 8.0 17.7 0.00 0.00 0.00 46 1012.7
20260906181559 35 98 6.4 16.1 0.00 0.00 0.00 48 1012.8
20260906180003 35 113 9.7 17.7 0.00 0.00 0.00 50 1013.1
20260906174537 35 135 4.8 16.1 0.00 0.00 0.00 51 1013.3
20260906173007 35 126 4.8 12.9 0.00 0.00 0.00 51 1013.5
20260906171517 34 33 1.6 16.1 0.00 0.00 0.00 53 1013.6
20260906170051 34 138 4.8 14.5 0.00 0.00 0.00 53 1013.8
20260906164600 34 189 6.4 12.9 0.00 0.00 0.00 54 1014.0
20260906164501 34 121 4.8 12.9 0.00 0.00 0.00 54 1014.0
20260906163051 34 106 0.0 8.0 0.00 0.00 0.00 58 1014.2
20260906161512 33 34 1.6 11.3 0.00 0.00 0.00 55 1014.1
20260906160033 33 169 1.6 11.3 0.00 0.00 0.00 57 1014.1
20260906154505 33 131 1.6 6.4 0.00 0.00 0.00 59 1013.9
20260906153037 32 130 1.6 8.0 0.00 0.00 0.00 63 1013.8
20260906151551 31 137 1.6 4.8 0.00 0.00 0.00 65 1013.6
20260906150030 31 136 0.0 4.8 0.00 0.00 0.00 67 1013.6
20260906144541 31 142 0.0 4.8 0.00 0.00 0.00 68 1013.5
20260906143013 30 145 1.6 4.8 0.00 0.00 0.00 70 1013.4
20260906141542 28 146 3.2 6.4 0.00 0.00 0.00 74 1013.5
20260906140104 28 148 0.0 4.8 0.00 0.00 0.00 75 1013.6
20260906134531 27 360 3.2 6.4 0.00 0.00 0.00 77 1013.7
20260906133042 27 360 0.0 1.6 0.00 0.00 0.00 79 1014.0
20260906131517 26 360 1.6 4.8 0.00 0.00 0.00 81 1013.7
20260906130030 26 360 1.6 4.8 0.00 0.00 0.00 83 1013.6
20260906124508 25 360 0.0 0.0 0.00 0.00 0.00 85 1013.4
20260906123046 25 360 0.0 0.0 0.00 0.00 0.00 85 1013.5
20260906121607 25 360 0.0 0.0 0.00 0.00 0.00 85 1013.1
20260906120036 25 360 0.0 0.0 0.00 0.00 0.00 84 1013.2
20260906114600 25 360 0.0 0.0 0.00 0.00 0.00 84 1013.1
20260906113005 25 360 0.0 0.0 0.00 0.00 0.00 85 1013.3
20260906111525 25 360 0.0 0.0 0.00 0.00 0.00 85 1012.7
20260906110054 25 360 0.0 0.0 0.00 0.00 0.00 84 1012.5
20260906104533 25 360 0.0 0.0 0.00 0.00 0.00 84 1012.3
20260906103006 25 360 0.0 0.0 0.00 0.00 0.00 84 1012.2
20260906101526 25 360 0.0 0.0 0.00 0.00 0.00 83 1012.3
20260906100100 25 360 0.0 0.0 0.00 0.00 0.00 83 1012.0
20260906100002 25 360 0.0 0.0 0.00 0.00 0.00 83 1012.1
20260906094513 25 360 0.0 0.0 0.00 0.00 0.00 82 1012.1
20260906093032 25 360 0.0 0.0 0.00 0.00 0.00 81 1012.1
20260906091550 26 360 0.0 0.0 0.00 0.00 0.00 79 1011.8
20260906090028 26 360 0.0 0.0 0.00 0.00 0.00 78 1011.6
20260906084544 27 360 0.0 0.0 0.00 0.00 0.00 77 1011.8
20260906083018 27 360 0.0 0.0 0.00 0.00 0.00 77 1011.7
20260906081540 27 360 0.0 4.8 0.00 0.00 0.00 75 1011.3
20260906080006 27 360 0.0 0.0 0.00 0.00 0.00 75 1011.3
20260906074522 27 360 0.0 0.0 0.00 0.00 0.00 75 1011.6
20260906073051 27 360 0.0 0.0 0.00 0.00 0.00 74 1011.9
20260906071507 28 360 0.0 4.8 0.00 0.00 0.00 73 1011.9
20260906070045 27 360 1.6 4.8 0.00 0.00 0.00 74 1011.8
20260906064551 27 360 0.0 0.0 0.00 0.00 0.00 74 1011.8
20260906063033 27 360 0.0 0.0 0.00 0.00 0.00 74 1012.2
20260906061547 28 360 0.0 0.0 0.00 0.00 0.00 73 1011.9
20260906060031 28 360 0.0 0.0 0.00 0.00 0.00 71 1012.0
20260906054548 28 360 0.0 0.0 0.00 0.00 0.00 70 1012.1
20260906053016 28 360 0.0 0.0 0.00 0.00 0.00 69 1012.1
20260906051553 28 360 0.0 0.0 0.00 0.00 0.00 68 1012.3
20260906050015 28 360 0.0 0.0 0.00 0.00 0.00 68 1012.2
20260906044528 29 360 0.0 3.2 0.00 0.00 0.00 67 1012.0
20260906043102 29 360 1.6 4.8 0.00 0.00 0.00 65 1012.0
20260906041525 30 360 1.6 4.8 0.00 0.00 0.00 65 1011.9
20260906040043 30 360 1.6 6.4 0.00 0.00 0.00 64 1011.9
20260906034516 30 360 1.6 6.4 0.00 0.00 0.00 63 1012.1
20260906033036 30 135 3.2 11.3 0.00 0.00 0.00 62 1011.9
20260906031509 31 144 4.8 11.3 0.00 0.00 0.00 62 1012.0
20260906030024 31 149 6.4 14.5 0.00 0.00 0.00 62 1011.8
20260906024556 31 129 6.4 12.9 0.00 0.00 0.00 61 1011.8
20260906023043 31 132 4.8 14.5 0.00 0.00 0.00 59 1011.5
20260906021544 32 145 3.2 14.5 0.00 0.00 0.00 57 1011.4
20260906020018 32 158 6.4 19.3 0.00 0.00 0.00 54 1011.0
20260906014556 32 130 0.0 0.0 0.00 0.00 0.00 52 1010.7
20260906013015 32 130 0.0 0.0 0.00 0.00 0.00 50 1010.5
20260906011530 33 130 0.0 0.0 0.00 0.00 0.00 51 1010.4
20260906010006 33 130 0.0 6.4 0.00 0.00 0.00 47 1010.2
20260906004520 34 129 1.6 4.8 0.00 0.00 0.00 46 1010.1
20260906003042 35 128 1.6 6.4 0.00 0.00 0.00 46 1010.0
20260906001552 35 125 1.6 6.4 0.00 0.00 0.00 44 1010.2
20260906000032 35 131 4.8 11.3 0.00 0.00 0.00 42 1010.2
20260905234555 36 132 3.2 8.0 0.00 0.00 0.00 42 1009.9
20260905233023 36 122 3.2 11.3 0.00 0.00 0.00 42 1009.9
20260905231548 36 119 1.6 6.4 0.00 0.00 0.00 41 1009.8
20260905230020 36 109 0.0 6.4 0.00 0.00 0.00 41 1009.9
20260905224547 37 90 0.0 11.3 0.00 0.00 0.00 41 1009.9
20260905223018 37 129 1.6 11.3 0.00 0.00 0.00 40 1010.0
20260905221541 37 125 4.8 14.5 0.00 0.00 0.00 41 1010.2